Location: *
(11.7485°N, 79.7483°E)
Time: 11:13:09
(UTC+00:00)

Cosmos 1400 Rocket - Pass Details

Date: 22 January 2021
Orbit: 520 x 568 km, 81.2° (Epoch: 24 February)

Event Time Altitude Azimuth Distance (km) Brightness Sun altitude
Rises 00:22:53 0° 196° (SSW) 2,695 6.4 -10.8°
Reaches altitude 10° 00:25:04 10° 202° (SSW) 1,811 5.4 -10.3°
Maximum altitude 00:28:56 47° 276° (W) 734 3.0 -9.4°
Drops below altitude 10° 00:32:50 10° 351° (N) 1,838 5.2 -8.5°
Sets 00:35:05 0° 357° (N) 2,739 6.2 -8.0°
